Location: Congrier
(47.8099°N, 1.1170°W)
Time: 00:59:53
(UTC+00:00)

Cosmos 540 Rocket - Pass Details

Date: 28 January 2023
Orbit: 740 x 751 km, 74.1° (Epoch: 21 March)

Event Time Altitude Azimuth Distance (km) Brightness Sun altitude
Rises 19:29:57 0° 339° (NNW) 3,210 7.0 -25.4°
Reaches altitude 10° 19:32:21 10° 342° (NNW) 2,281 6.2 -25.8°
Enters shadow 19:36:14 49° 2° (N) 963 3.9 -26.5°
